Location: Dunedin
(45.8670°S, 170.5000°E)
Time: 16:58:16
(UTC+12:00)

Cosmos 1633 Rocket - Pass Details

Date: 24 January 2019
Orbit: 608 x 623 km, 82.5° (Epoch: 20 April)

Event Time Altitude Azimuth Distance (km) Brightness Sun altitude
Rises 22:07:27 0° 194° (SSW) 2,914 7.4 -7.7°
Reaches altitude 10° 22:09:44 10° 199° (SSW) 2,001 6.7 -8.0°
Maximum altitude 22:14:00 50° 273° (W) 795 4.0 -8.6°
Drops below altitude 10° 22:18:15 10° 348° (NNW) 1,979 5.4 -9.2°
Sets 22:20:30 0° 353° (N) 2,878 6.2 -9.5°
